Simultaneous Nadir Overpasses (SNOs) Predictions

Prediction of SNOs between NOAA-20 and AQUA Satellite Orbit:

Table of predicted SNOs for the next 14.0 days since TLE Epoch: 12/21/2018
Index Date (NOAA-20) Time (NOAA-20) Lat,Lon (NOAA-20) SZA (NOAA-20 ) Date (AQUA) Time (AQUA) Lat,Lon (AQUA) SZA (AQUA ) Distance(km) Time Diff (sec)
1 12/22/2018 22:12:56 75.45, 84.07 120.59 12/22/2018 22:13:32 75.45, 84.11 120.55 1.15 36
2 12/22/2018 23:03:14 -76.72,-104.19 60.88 12/22/2018 23:02:33 -76.72,-104.28 60.82 2.43 41
3 12/25/2018 14:29:44 75.89,-158.75 120.12 12/25/2018 14:29:53 75.89,-158.74 120.11 0.45 9
4 12/25/2018 15:20:12 -76.70, 11.48 60.83 12/25/2018 15:19:03 -76.71, 11.57 60.79 2.32 69
5 12/28/2018 05:56:15 -75.02, 147.02 58.93 12/28/2018 05:57:13 -75.03, 147.07 59.01 1.79 58
6 12/28/2018 06:46:31 76.32, -41.50 119.60 12/28/2018 06:46:13 76.32, -41.52 119.62 0.68 18
7 12/30/2018 22:13:01 -75.56, -95.60 59.62 12/30/2018 22:13:32 -75.56, -95.59 59.65 0.49 31
8 12/30/2018 23:03:19 76.74, 75.84 119.01 12/30/2018 23:02:34 76.73, 75.76 119.07 2.21 45
9 01/02/2019 14:29:48 -76.04, 21.74 60.31 01/02/2019 14:29:52 -76.03, 21.70 60.30 1.23 4




NCC Satellite Simultaneous Nadir Overpasses (SNOs) Prediction Service
